Temperature
25 23 23 24 24 25 25 25 24 25 25 25 24 24 23 22 22 22 22 22 22 22 22 22 22 22 21 21 21 20 20 19 19 19 19 18 18 18 18 18 18 18 18 17
22 23 25 25 25 25 25 25 25 25 25 25 24 24 23 22 22 22 22 22 22 22 22 22 22 21 21 21 21 20 20 19 19 19 19 18 18 18 18 18 18 18 18 18
24 24 25 25 26 26 26 25 25 25 25 24 24 24 23 23 23 23 23 23 22 22 23 22 22 22 21 21 21 20 20 19 19 19 19 18 18 18 18 18 18 18 18 17
24 24 25 26 26 26 25 26 25 25 24 22 24 23 23 22 22 22 22 23 23 23 23 23 22 22 22 21 21 20 20 19 19 19 19 18 18 18 18 18 18 18 18 17
24 25 26 26 26 26 26 24 24 24 23 22 22 22 22 22 22 22 22 23 23 23 23 23 23 22 22 21 21 20 20 20 19 19 19 19 19 19 18 18 18 18 18 18
24 25 26 26 26 26 25 23 22 19 20 22 23 22 22 21 22 22 22 23 24 23 23 23 23 22 22 21 21 20 20 20 20 19 19 19 19 19 18 18 18 18 18 17
24 25 25 26 26 26 24 22 21 22 20 21 21 21 21 22 22 22 22 23 24 24 24 23 23 22 22 21 21 21 20 20 20 19 19 19 19 19 18 18 18 18 18 17
23 23 25 26 26 25 24 22 21 22 22 20 21 21 22 23 23 23 24 24 24 24 24 24 23 23 22 22 21 21 21 20 20 19 19 19 19 18 18 18 18 18 17 17
21 22 24 25 26 24 23 22 20 19 20 21 21 21 22 23 22 22 23 23 24 24 24 24 24 23 23 22 22 21 21 20 20 20 19 19 19 18 18 18 18 18 17 17
21 23 24 24 25 24 23 19 18 19 20 21 22 22 22 24 23 22 21 23 24 24 24 24 24 23 23 22 22 21 21 20 20 20 19 19 19 18 18 18 18 17 17 17
21 22 23 24 25 24 22 21 18 17 18 20 21 22 22 22 22 22 22 23 25 25 25 24 24 23 23 22 22 21 21 21 20 20 19 19 19 19 18 18 18 17 17 17
20 19 20 22 23 23 24 21 19 21 20 18 19 21 23 22 22 22 23 24 25 25 25 25 24 23 23 22 22 21 21 21 20 20 20 19 19 19 18 18 18 17 17 17
19 19 20 22 22 23 23 21 19 17 16 16 19 22 22 21 22 23 23 24 25 25 25 25 24 23 23 22 22 21 21 21 20 20 20 19 19 19 18 18 17 17 17 17
19 18 19 21 21 22 23 22 19 19 18 18 19 21 22 22 21 22 23 24 24 25 25 25 24 23 23 22 22 21 21 21 20 20 20 19 19 19 18 18 17 17 17 17
19 19 19 20 21 22 23 23 21 21 20 20 21 20 22 21 21 22 23 23 23 24 25 24 24 23 23 22 22 21 21 21 20 20 20 19 19 19 18 18 17 17 17 17
16 18 20 21 21 22 23 23 22 22 21 21 22 21 21 21 22 22 22 22 23 24 25 25 24 24 23 23 22 22 21 21 20 20 20 19 19 19 18 18 17 17 17 17
15 17 18 19 21 22 22 22 22 22 21 21 22 22 20 20 20 21 22 23 23 24 24 24 24 24 24 23 23 22 21 21 20 20 19 19 19 18 18 18 17 17 17 16
15 15 15 17 20 21 21 21 21 21 20 20 20 19 19 20 21 22 23 23 24 24 24 24 24 24 24 23 23 22 21 21 20 20 19 19 19 18 18 17 17 17 16 16
14 15 15 16 18 20 21 21 20 21 20 19 19 18 19 20 21 21 23 23 24 24 24 24 24 24 23 23 22 22 21 20 20 20 19 19 18 18 18 17 17 17 16 16
13 14 15 15 19 19 20 20 20 20 20 19 18 18 18 19 19 20 22 23 23 23 24 24 24 24 23 23 22 21 21 20 20 20 19 19 18 18 17 17 17 16 16 16
15 15 15 16 17 18 18 17 19 20 19 18 18 18 18 18 19 21 22 23 23 23 23 23 23 23 22 22 21 21 21 20 20 19 19 18 18 17 17 17 16 16 16 15
14 15 14 14 17 17 17 17 18 17 18 18 18 19 19 19 20 21 22 22 22 22 22 22 22 22 21 21 21 20 20 20 19 19 18 18 17 17 16 16 16 16 15 15
13 13 13 14 14 15 15 16 17 17 17 18 19 19 19 20 20 21 21 21 21 21 21 21 21 21 20 20 20 20 20 19 19 18 18 17 17 16 16 16 15 15 15 15
13 12 12 13 14 15 15 16 17 17 18 18 19 19 19 19 20 20 20 20 20 20 20 20 20 20 19 19 19 19 18 18 18 18 17 17 16 16 16 15 15 15 15 14
12 12 12 13 14 15 16 16 17 17 18 18 19 19 19 19 19 19 19 19 19 20 20 20 19 19 19 18 18 18 18 17 17 17 17 16 16 16 15 15 15 14 14 14
11 12 12 13 14 13 15 16 17 17 17 18 18 18 18 18 18 18 18 18 18 18 19 18 18 18 18 18 17 17 17 17 16 16 16 16 15 15 15 14 14 14 14 13
Wind_Speed
5 5 0 3 4 3 2 1 4 4 2 2 3 4 4 6 7 7 8 8 8 8 6 6 7 8 8 8 8 9 9 7 7 4 4 3 3 2 2 4 6 7 7 8
6 2 5 3 3 2 2 1 2 3 3 2 1 3 2 5 8 9 10 10 9 7 6 7 7 8 9 9 9 9 9 9 8 5 4 3 3 2 2 2 4 6 7 8
4 5 2 1 1 1 1 3 3 2 3 5 3 6 2 3 4 5 6 7 7 9 9 8 8 9 9 10 10 10 10 9 8 6 4 3 2 1 1 2 2 4 6 7
4 5 1 1 1 3 4 4 4 3 3 3 3 2 7 4 4 6 7 7 8 8 8 8 9 9 10 9 8 8 9 9 8 8 6 6 5 4 5 3 3 3 4 5
4 2 0 2 4 5 4 2 3 3 4 3 4 1 8 3 5 8 8 9 9 9 9 10 10 9 8 8 8 7 8 8 7 8 8 7 5 4 2 2 2 3 2 4
5 3 4 5 2 3 5 7 8 7 5 2 2 1 7 5 7 6 6 8 8 8 9 8 7 7 6 7 7 7 8 7 7 8 8 7 7 6 4 3 3 3 2 2
4 5 4 3 1 3 5 6 5 6 5 5 4 2 9 8 8 8 7 7 7 8 8 8 8 8 8 9 9 8 8 7 7 7 7 7 7 7 6 5 4 3 2 2
3 6 4 3 6 5 5 9 8 5 5 5 4 5 8 7 6 5 5 5 6 7 7 9 10 9 9 9 9 9 9 8 7 8 7 6 6 5 4 4 4 4 4 3
8 6 5 4 3 9 6 4 7 7 3 0 6 8 9 3 2 1 3 5 7 8 8 8 8 9 9 9 9 10 9 8 8 7 7 6 5 5 4 4 3 3 3 2
10 4 5 4 4 5 5 9 7 7 6 2 5 6 5 7 6 4 5 7 7 7 7 8 8 8 8 8 8 8 8 8 7 7 6 5 5 5 4 3 3 3 3 2
7 5 4 3 4 5 5 5 6 6 6 7 3 8 8 9 8 8 9 8 8 9 9 8 7 7 7 7 7 7 7 7 6 6 6 5 4 4 4 3 3 3 2 2
6 6 4 7 4 2 5 8 8 6 4 5 5 8 7 8 8 7 8 7 7 8 7 7 7 7 7 8 8 8 7 7 6 6 5 5 4 4 4 3 3 3 2 2
7 7 2 5 5 1 3 4 5 7 6 6 5 8 5 3 4 5 6 7 6 7 7 6 7 7 8 8 8 7 7 7 6 6 6 5 5 4 4 3 3 3 3 3
7 6 8 10 8 6 4 5 6 7 5 6 8 9 9 7 6 6 6 6 7 8 8 7 7 6 7 7 7 7 7 7 7 7 6 6 5 5 4 4 3 3 3 3
5 5 5 6 5 5 5 6 7 6 9 9 9 8 10 9 8 7 6 5 7 7 7 8 8 8 7 7 7 7 7 7 8 7 6 5 5 5 5 4 4 3 3 3
3 5 4 1 3 4 3 5 7 5 5 5 4 8 8 6 3 3 4 6 8 9 9 9 9 9 10 10 9 8 8 8 7 7 6 6 6 5 5 5 4 4 4 3
2 5 4 3 1 4 4 5 6 4 3 5 6 6 5 3 4 5 5 6 8 9 9 9 10 11 11 10 10 10 8 7 8 7 6 6 6 6 5 5 5 4 4 4
4 4 4 3 4 6 8 2 3 4 1 1 4 6 5 6 5 3 3 6 7 7 7 8 8 8 8 8 8 8 8 8 7 7 6 6 6 6 5 5 5 4 3 3
5 7 5 4 5 3 4 0 2 3 1 2 3 5 4 3 1 2 2 2 5 6 5 6 7 7 7 8 9 10 9 8 8 7 7 7 7 6 6 5 5 4 4 3
5 5 6 5 5 7 5 3 3 3 2 3 2 3 3 3 2 4 4 2 2 1 1 4 6 7 9 9 10 11 10 9 8 8 7 7 7 7 6 6 5 3 4 4
3 4 4 4 4 5 4 8 3 5 5 4 3 2 0 1 3 4 4 3 2 2 2 4 7 7 7 9 11 10 9 8 7 6 6 6 6 6 6 5 4 4 4 4
3 3 3 5 4 5 5 4 2 4 3 3 3 2 0 1 2 3 3 4 4 5 4 5 6 6 6 9 10 10 8 6 6 7 7 7 6 5 5 5 4 4 5 5
1 3 5 5 5 4 3 2 3 2 1 2 2 3 1 2 2 3 3 4 4 4 4 5 6 6 5 6 8 8 6 7 8 7 6 6 6 5 5 5 5 4 4 4
2 1 3 1 1 3 4 3 3 2 0 1 2 2 2 3 2 3 3 3 4 3 3 4 6 6 4 4 5 5 7 8 8 8 7 6 6 5 5 4 4 4 4 3
3 0 2 1 1 3 4 4 4 4 4 4 4 3 3 3 2 2 3 2 2 2 3 4 4 4 4 3 4 5 6 7 8 7 6 6 6 6 5 4 2 3 2 3
2 3 4 4 5 3 3 4 3 3 4 3 3 4 4 3 3 3 3 2 1 2 2 4 4 4 4 4 3 4 5 6 7 6 5 5 4 4 4 4 3 5 3 4
Wind_Direction
30 61 184 226 185 184 194 241 286 279 278 140 213 241 220 185 188 195 201 201 196 205 202 190 182 174 170 171 172 175 173 171 165 162 160 167 189 193 195 207 210 203 201 198
33 316 244 210 184 178 182 305 304 325 14 86 295 300 261 201 211 207 205 205 198 190 187 189 179 175 176 181 181 180 180 178 183 178 163 164 165 188 197 205 204 207 202 201
188 244 242 158 36 74 281 204 220 222 15 37 45 342 316 262 238 227 212 207 201 194 195 190 183 184 182 187 187 189 185 182 185 170 143 123 107 100 173 210 213 211 205 206
231 262 259 321 253 153 273 252 191 156 85 354 39 302 293 279 271 237 219 205 206 198 192 188 188 190 190 191 182 183 181 180 181 172 172 169 177 191 204 200 207 212 210 211
239 233 209 248 229 172 210 45 93 86 109 47 24 122 290 317 267 249 227 214 208 194 189 190 191 192 186 177 176 178 173 178 179 178 182 182 187 192 187 185 204 218 220 218
240 247 222 220 210 155 131 69 52 47 66 35 308 179 281 252 236 252 226 212 202 185 183 187 185 172 169 166 169 170 172 180 179 181 186 189 190 185 180 193 206 216 219 233
306 299 264 200 120 41 97 88 35 11 15 259 289 245 253 258 248 238 230 219 193 178 178 179 178 177 176 174 175 174 176 183 181 183 191 193 194 189 193 200 205 206 215 234
192 284 265 209 185 176 156 136 154 185 214 275 319 249 257 269 276 247 216 198 175 176 178 183 186 185 183 178 174 175 180 184 181 187 194 190 189 191 200 201 200 207 218 227
178 247 285 256 202 141 132 148 152 129 146 312 292 293 303 295 316 207 174 169 183 186 184 186 183 181 181 180 181 181 179 180 183 188 186 184 186 192 199 199 201 210 212 209
158 219 286 300 83 45 133 140 104 118 142 223 293 289 262 273 253 228 208 201 198 187 184 184 182 182 183 184 180 174 176 180 181 181 184 187 188 191 194 186 193 200 200 189
147 171 292 0 165 172 110 102 104 111 144 153 226 269 230 228 228 220 222 214 201 193 191 190 187 181 176 168 165 170 173 172 173 177 179 181 182 177 175 180 192 192 184 176
154 140 228 262 261 189 166 164 147 149 195 171 174 260 265 237 238 222 223 217 202 194 189 184 178 169 169 169 170 174 175 177 177 174 170 172 167 158 159 169 173 165 159 151
141 129 132 330 335 45 138 147 142 124 118 150 171 261 305 304 261 231 221 216 197 184 180 175 171 172 174 174 174 176 176 178 171 165 163 161 159 157 160 164 155 151 144 132
130 130 168 194 211 190 174 166 151 130 146 186 215 249 294 289 265 248 230 214 194 186 180 176 175 177 176 174 174 174 176 172 166 163 162 164 165 163 159 153 149 150 146 141
119 162 193 213 207 177 182 182 172 174 178 182 223 229 257 257 245 238 220 199 186 187 186 182 181 181 175 173 175 174 174 171 166 161 164 169 161 150 143 141 138 134 136 140
82 149 152 211 205 190 199 206 182 188 178 204 231 255 262 277 251 226 206 192 197 201 199 188 183 183 180 179 181 178 177 173 164 162 163 157 149 144 143 139 131 125 121 122
80 123 130 204 204 115 225 218 189 183 179 178 209 250 300 292 248 222 208 199 206 206 201 192 192 191 187 183 178 177 178 166 160 159 156 154 149 149 149 142 132 130 128 121
143 119 127 139 117 193 237 266 172 149 122 243 256 277 276 260 247 237 208 203 212 207 200 195 191 190 183 171 165 159 155 153 154 154 157 155 152 151 145 138 138 132 122 120
160 139 123 129 163 234 289 312 142 150 230 299 277 298 309 317 29 342 302 236 229 217 200 189 179 173 163 162 157 149 148 150 157 163 168 164 161 158 153 152 149 140 133 127
69 99 117 126 148 205 235 306 308 136 257 320 325 317 328 41 60 288 317 316 312 324 157 155 147 144 153 156 150 150 156 163 173 172 172 164 164 164 163 162 153 142 140 142
51 61 113 145 181 244 284 305 319 163 232 310 323 311 317 176 228 284 332 353 23 49 90 123 129 140 152 150 150 154 159 175 176 160 155 155 160 162 158 155 150 144 141 138
159 136 153 140 166 239 321 359 126 212 270 305 312 309 293 263 314 0 23 36 45 53 70 103 118 126 138 149 153 158 170 170 151 150 152 155 155 156 154 151 148 147 150 150
167 185 175 176 200 257 300 283 280 232 245 311 333 330 358 23 19 28 34 45 56 62 80 99 114 118 121 140 151 160 162 146 143 141 148 152 147 148 149 151 152 151 154 158
329 82 116 102 294 315 331 335 343 351 348 333 3 16 44 48 40 51 59 56 57 63 78 95 109 119 123 134 140 142 139 142 144 148 154 156 154 153 147 146 153 159 167 171
272 354 105 116 262 345 347 348 339 351 9 25 32 39 50 72 57 49 50 49 68 82 81 97 114 125 127 126 125 133 144 148 150 152 156 161 158 153 148 140 136 157 160 186
241 189 166 204 218 186 255 293 330 7 7 11 29 30 35 57 66 66 64 51 46 67 87 99 103 114 117 117 119 124 140 148 153 155 160 162 161 158 157 152 117 69 91 105
Height
1504 1510 1516 1514 1513 1514 1517 1521 1524 1518 1510 1512 1514 1514 1512 1512 1513 1514 1515 1517 1519 1521 1524 1526 1528 1530 1532 1535 1537 1540 1542 1545 1547 1549 1550 1552 1553 1555 1557 1558 1560 1561 1562 1564
1512 1515 1509 1508 1509 1512 1516 1520 1521 1516 1510 1512 1516 1515 1512 1511 1511 1511 1512 1514 1517 1520 1522 1524 1527 1528 1530 1532 1535 1538 1540 1542 1544 1547 1549 1551 1552 1554 1556 1557 1559 1560 1561 1562
1513 1511 1506 1507 1510 1513 1515 1518 1518 1518 1514 1514 1517 1520 1515 1511 1510 1511 1512 1513 1516 1518 1520 1522 1524 1526 1528 1531 1533 1536 1538 1541 1543 1546 1547 1549 1551 1553 1554 1556 1557 1559 1560 1561
1509 1506 1505 1507 1509 1511 1519 1509 1511 1514 1523 1531 1525 1539 1520 1514 1511 1509 1509 1511 1512 1515 1518 1520 1522 1524 1526 1529 1532 1534 1537 1539 1542 1544 1546 1547 1549 1550 1552 1554 1555 1557 1558 1559
1509 1504 1505 1508 1506 1506 1510 1508 1512 1516 1524 1534 1532 1539 1529 1515 1513 1508 1506 1507 1509 1512 1515 1517 1520 1522 1525 1528 1531 1533 1535 1538 1540 1542 1544 1546 1547 1549 1550 1552 1553 1555 1556 1557
1505 1502 1502 1502 1500 1502 1506 1513 1520 1529 1535 1547 1537 1540 1535 1520 1510 1504 1502 1503 1505 1509 1512 1515 1518 1521 1524 1527 1529 1531 1534 1536 1539 1540 1542 1544 1545 1547 1548 1550 1551 1552 1554 1555
1508 1503 1499 1498 1502 1504 1509 1527 1548 1550 1558 1554 1539 1539 1533 1508 1503 1501 1500 1501 1503 1507 1510 1513 1516 1518 1521 1524 1527 1530 1532 1534 1536 1539 1540 1542 1544 1545 1546 1548 1549 1550 1551 1552
1518 1519 1501 1497 1500 1507 1511 1522 1547 1557 1560 1554 1540 1540 1519 1502 1498 1497 1498 1500 1502 1505 1508 1511 1514 1517 1520 1522 1525 1528 1530 1532 1535 1537 1539 1540 1542 1543 1544 1546 1547 1548 1549 1549
1519 1517 1499 1495 1494 1500 1512 1520 1523 1544 1550 1554 1546 1532 1512 1499 1498 1497 1498 1499 1501 1504 1507 1510 1512 1515 1518 1521 1524 1526 1529 1531 1533 1535 1537 1538 1540 1541 1542 1543 1544 1545 1546 1547
1504 1512 1501 1496 1495 1499 1503 1515 1531 1544 1558 1558 1546 1537 1526 1505 1500 1498 1497 1498 1500 1503 1506 1509 1511 1514 1517 1520 1523 1525 1527 1529 1531 1533 1535 1537 1538 1539 1540 1541 1542 1543 1544 1544
1498 1509 1506 1501 1501 1505 1510 1517 1528 1541 1543 1556 1555 1539 1505 1500 1495 1495 1495 1496 1498 1501 1504 1507 1510 1513 1516 1519 1521 1524 1526 1528 1530 1532 1534 1535 1536 1537 1538 1539 1540 1541 1542 1542
1496 1509 1517 1508 1497 1496 1499 1508 1520 1532 1540 1546 1547 1534 1493 1492 1491 1492 1493 1494 1497 1500 1503 1506 1509 1512 1514 1517 1520 1522 1525 1527 1529 1531 1532 1533 1534 1535 1536 1537 1538 1539 1539 1540
1494 1509 1522 1519 1511 1502 1502 1506 1511 1522 1536 1547 1546 1527 1492 1491 1490 1490 1492 1493 1495 1498 1501 1505 1508 1510 1513 1516 1519 1521 1523 1525 1527 1529 1530 1532 1533 1534 1535 1536 1536 1537 1538 1538
1486 1503 1513 1520 1514 1503 1502 1504 1509 1516 1532 1538 1532 1516 1498 1493 1490 1489 1490 1491 1494 1496 1500 1503 1506 1509 1512 1515 1518 1520 1522 1524 1526 1527 1529 1530 1531 1532 1533 1533 1534 1535 1536 1536
1486 1500 1500 1499 1496 1496 1496 1498 1504 1507 1512 1520 1514 1511 1498 1490 1488 1486 1487 1489 1492 1495 1498 1501 1504 1507 1510 1513 1516 1519 1521 1523 1524 1526 1527 1529 1530 1531 1531 1532 1533 1533 1534 1535
1489 1496 1498 1498 1495 1495 1496 1495 1498 1499 1502 1505 1503 1502 1489 1487 1486 1486 1486 1488 1489 1492 1495 1498 1502 1505 1507 1511 1514 1516 1519 1521 1523 1524 1526 1528 1528 1529 1530 1531 1531 1532 1533 1533
1494 1497 1504 1507 1497 1497 1505 1495 1495 1495 1495 1497 1501 1495 1488 1486 1484 1484 1484 1485 1487 1489 1492 1496 1499 1502 1505 1508 1511 1514 1517 1519 1521 1523 1525 1526 1527 1528 1529 1529 1530 1531 1532 1532
1493 1499 1507 1510 1505 1516 1501 1488 1488 1491 1493 1493 1492 1489 1486 1484 1482 1482 1483 1484 1485 1487 1490 1493 1496 1500 1503 1506 1510 1512 1515 1518 1519 1521 1523 1524 1526 1527 1528 1528 1529 1530 1531 1531
1486 1495 1507 1514 1514 1506 1494 1488 1489 1492 1494 1490 1489 1487 1484 1482 1481 1482 1482 1483 1484 1486 1488 1490 1493 1497 1501 1504 1507 1510 1513 1516 1517 1519 1521 1522 1524 1526 1527 1527 1528 1529 1529 1530
1488 1490 1503 1511 1512 1514 1497 1487 1486 1489 1496 1488 1487 1486 1484 1483 1487 1484 1481 1481 1483 1485 1487 1488 1491 1494 1498 1501 1505 1508 1510 1513 1514 1517 1519 1520 1522 1524 1525 1526 1527 1527 1528 1528
1495 1499 1503 1508 1509 1503 1492 1487 1485 1499 1498 1488 1486 1485 1484 1484 1485 1483 1481 1481 1482 1483 1485 1487 1489 1492 1495 1499 1502 1505 1508 1510 1513 1515 1517 1519 1521 1522 1523 1524 1525 1526 1526 1526
1498 1501 1505 1508 1510 1507 1491 1487 1491 1492 1488 1487 1485 1485 1484 1483 1482 1481 1481 1481 1481 1482 1484 1486 1488 1490 1493 1496 1499 1502 1505 1508 1510 1512 1514 1516 1518 1520 1521 1522 1523 1524 1524 1524
1497 1497 1499 1501 1503 1495 1491 1490 1489 1488 1487 1486 1485 1484 1484 1483 1482 1482 1482 1481 1482 1483 1484 1486 1488 1490 1492 1495 1498 1500 1502 1506 1507 1509 1512 1514 1516 1517 1518 1519 1521 1521 1522 1522
1495 1494 1495 1497 1495 1493 1491 1490 1489 1488 1487 1486 1485 1485 1484 1484 1484 1484 1483 1483 1483 1484 1485 1486 1488 1490 1492 1494 1496 1499 1500 1502 1505 1507 1509 1511 1513 1514 1515 1516 1518 1519 1520 1520
1496 1495 1495 1496 1494 1492 1491 1490 1489 1488 1487 1486 1486 1485 1485 1484 1485 1485 1485 1484 1484 1484 1485 1486 1489 1490 1491 1493 1495 1496 1499 1501 1502 1504 1506 1508 1509 1511 1513 1514 1515 1516 1517 1519
1494 1494 1495 1495 1492 1492 1492 1491 1489 1488 1487 1486 1486 1485 1485 1485 1485 1485 1485 1485 1485 1485 1485 1486 1488 1490 1491 1492 1493 1494 1495 1498 1501 1502 1503 1505 1507 1509 1510 1511 1512 1513 1515 1516